{"data":{"norad_id":39766,"epoch":"2026-09-20T05:32:34.875744Z","epoch_age_seconds":37532,"freshness":"FRESH","line1":"1 39766U 14029A   26263.23095921  .00000880  00000+0  12463-3 0  9991","line2":"2 39766  97.9222 359.0337 0001530  92.8994 267.2393 14.79476547665636","mean_motion":14.79476547,"eccentricity":0.000153,"inclination_deg":97.9222,"raan_deg":359.0337,"arg_perigee_deg":92.8994,"mean_anomaly_deg":267.2393,"bstar":0.00012463,"rev_number":66563,"period_min":97.331722014786,"perigee_km":629.90451420765,"apogee_km":632.04930306369,"semimajor_km":7009.1139086357,"source":"CELESTRAK","updated_at":"2026-09-20T09:00:33.896493Z"}}